Volver al catálogo

ATLAS 5 CENTAUR R/B

ActivoHEO
NORAD 36396·ROCKET BODY·🇺🇸 United States

Lanzado Feb 11, 2010 desde Cape Canaveral Space Force Station

Loading…

Próximos Pases (próximas 24 horas)

TLE

ActualizadoSource: Space-Track

Época: Sep 14, 2026, 02:02 UTC

1 36396U 10005B   26257.08528919 -.00000124  00000-0  00000+0 0  9994
2 36396  28.5618 215.8961 6343247 163.2780 235.1923  2.28842050138702

Sigue ATLAS 5 CENTAUR R/B en tiempo real con AllMySat

Download on the App Store